Terug naar catalogus

COSMOS 397 DEB

ActiefLEO
NORAD 6844·DEBRIS·🇷🇺 Russia

Gelanceerd Feb 25, 1971 vanaf Baikonur Cosmodrome

Loading…

Volgende Passages (komende 24 uur)

TLE

VersSource: Space-Track

Epoch: Sep 14, 2026, 05:21 UTC

1 06844U 71015CL  26257.22345711  .00001233  00000-0  34571-3 0  9995
2 06844  65.8985 347.7206 0550648  67.8354 298.0194 13.86018105632912

Volg COSMOS 397 DEB in realtime met AllMySat

Download on the App Store